QPF
0.01 0.01 0.00 0.00 0.00 0.00 0.01 0.02 0.02 0.01 0.01 0.02 0.02 0.02 0.01 0.01 0.00 0.00 0.01 0.01 0.01 0.01 0.01 0.02 0.02 0.03 0.03 0.04 0.05 0.07 0.07 0.04 0.02 0.02 0.02 0.02 0.03 0.03 0.03 0.02 0.02 0.02 0.02 0.02
0.02 0.01 0.01 0.01 0.00 0.00 0.01 0.01 0.01 0.01 0.01 0.02 0.03 0.03 0.02 0.01 0.01 0.01 0.01 0.01 0.01 0.01 0.01 0.01 0.02 0.02 0.03 0.04 0.05 0.06 0.06 0.06 0.02 0.01 0.01 0.02 0.02 0.03 0.03 0.03 0.03 0.03 0.02 0.02
0.02 0.01 0.02 0.02 0.01 0.00 0.00 0.01 0.01 0.01 0.01 0.02 0.03 0.04 0.03 0.02 0.01 0.02 0.02 0.01 0.01 0.01 0.01 0.01 0.01 0.02 0.03 0.03 0.05 0.06 0.06 0.06 0.05 0.02 0.02 0.02 0.02 0.03 0.03 0.03 0.03 0.03 0.03 0.02
0.03 0.02 0.03 0.02 0.01 0.01 0.01 0.01 0.02 0.01 0.01 0.01 0.02 0.03 0.03 0.03 0.02 0.02 0.02 0.02 0.01 0.01 0.01 0.01 0.01 0.01 0.03 0.04 0.04 0.05 0.06 0.06 0.06 0.04 0.03 0.02 0.02 0.03 0.03 0.03 0.03 0.03 0.03 0.02
0.05 0.03 0.01 0.01 0.01 0.01 0.01 0.02 0.02 0.02 0.02 0.02 0.02 0.02 0.02 0.03 0.03 0.03 0.02 0.02 0.02 0.03 0.02 0.01 0.01 0.01 0.02 0.04 0.05 0.04 0.06 0.06 0.06 0.06 0.04 0.03 0.03 0.03 0.03 0.03 0.03 0.03 0.03 0.02
0.06 0.04 0.02 0.01 0.00 0.01 0.01 0.02 0.02 0.02 0.02 0.02 0.02 0.03 0.03 0.02 0.02 0.02 0.02 0.02 0.02 0.02 0.02 0.02 0.02 0.02 0.02 0.03 0.05 0.05 0.06 0.06 0.07 0.07 0.06 0.04 0.03 0.03 0.04 0.04 0.04 0.04 0.04 0.03
0.04 0.04 0.02 0.01 0.01 0.01 0.02 0.02 0.02 0.01 0.01 0.02 0.02 0.03 0.02 0.02 0.02 0.02 0.01 0.01 0.01 0.01 0.02 0.03 0.03 0.02 0.03 0.05 0.05 0.05 0.06 0.07 0.07 0.08 0.07 0.05 0.04 0.04 0.04 0.05 0.05 0.05 0.05 0.04
0.02 0.03 0.01 0.00 0.01 0.01 0.02 0.01 0.01 0.01 0.01 0.01 0.02 0.02 0.02 0.02 0.01 0.01 0.01 0.01 0.01 0.01 0.01 0.02 0.02 0.04 0.04 0.05 0.05 0.04 0.04 0.06 0.07 0.07 0.08 0.07 0.06 0.04 0.05 0.06 0.06 0.06 0.06 0.06
0.01 0.02 0.01 0.01 0.01 0.01 0.01 0.01 0.01 0.01 0.01 0.01 0.02 0.02 0.01 0.01 0.01 0.01 0.01 0.01 0.01 0.01 0.01 0.01 0.03 0.05 0.04 0.04 0.04 0.04 0.04 0.04 0.05 0.06 0.07 0.07 0.07 0.06 0.06 0.06 0.06 0.06 0.06 0.06
0.01 0.01 0.01 0.01 0.01 0.01 0.01 0.01 0.01 0.01 0.01 0.01 0.01 0.01 0.01 0.01 0.01 0.01 0.01 0.01 0.01 0.01 0.01 0.01 0.02 0.03 0.03 0.04 0.04 0.04 0.03 0.03 0.04 0.05 0.07 0.08 0.09 0.08 0.08 0.07 0.06 0.05 0.05 0.05
0.01 0.01 0.01 0.01 0.01 0.01 0.01 0.01 0.01 0.01 0.01 0.01 0.01 0.01 0.01 0.01 0.00 0.00 0.01 0.01 0.01 0.01 0.01 0.01 0.01 0.02 0.03 0.03 0.04 0.04 0.04 0.03 0.04 0.05 0.06 0.08 0.09 0.10 0.09 0.08 0.07 0.06 0.05 0.05
0.01 0.01 0.01 0.01 0.01 0.01 0.01 0.01 0.01 0.01 0.01 0.01 0.01 0.01 0.01 0.00 0.00 0.00 0.01 0.01 0.01 0.01 0.01 0.01 0.01 0.01 0.02 0.03 0.03 0.03 0.04 0.03 0.04 0.05 0.05 0.06 0.08 0.09 0.10 0.09 0.08 0.07 0.06 0.06
0.01 0.01 0.01 0.01 0.01 0.01 0.01 0.01 0.01 0.01 0.01 0.01 0.00 0.01 0.01 0.01 0.01 0.01 0.01 0.01 0.01 0.01 0.01 0.01 0.01 0.02 0.02 0.02 0.02 0.03 0.04 0.04 0.04 0.04 0.05 0.06 0.07 0.07 0.08 0.09 0.09 0.08 0.07 0.06
0.01 0.01 0.01 0.01 0.01 0.01 0.01 0.01 0.01 0.01 0.01 0.00 0.00 0.00 0.00 0.00 0.00 0.00 0.00 0.00 0.01 0.01 0.01 0.01 0.01 0.01 0.02 0.02 0.02 0.02 0.03 0.04 0.05 0.05 0.05 0.06 0.06 0.05 0.05 0.06 0.07 0.07 0.07 0.07
0.01 0.01 0.01 0.01 0.01 0.01 0.01 0.01 0.01 0.00 0.00 0.00 0.00 0.00 0.00 0.00 0.00 0.01 0.00 0.00 0.00 0.00 0.00 0.01 0.01 0.01 0.01 0.01 0.02 0.03 0.03 0.04 0.04 0.04 0.04 0.04 0.04 0.04 0.04 0.04 0.05 0.05 0.06 0.07
0.01 0.01 0.01 0.01 0.01 0.01 0.00 0.00 0.00 0.00 0.00 0.00 0.00 0.00 0.00 0.00 0.00 0.00 0.00 0.00 0.00 0.00 0.00 0.00 0.00 0.01 0.01 0.02 0.02 0.03 0.02 0.02 0.02 0.03 0.03 0.03 0.04 0.04 0.04 0.04 0.04 0.05 0.05 0.05
0.01 0.01 0.01 0.01 0.00 0.00 0.00 0.00 0.00 0.00 0.00 0.00 0.00 0.00 0.00 0.00 0.00 0.00 0.00 0.00 0.00 0.00 0.01 0.01 0.01 0.01 0.01 0.01 0.01 0.02 0.02 0.01 0.02 0.02 0.02 0.03 0.04 0.04 0.04 0.04 0.04 0.05 0.05 0.05
0.02 0.01 0.01 0.01 0.01 0.01 0.00 0.00 0.00 0.00 0.00 0.00 0.00 0.00 0.00 0.00 0.00 0.00 0.01 0.01 0.01 0.01 0.01 0.01 0.01 0.01 0.01 0.01 0.01 0.01 0.02 0.02 0.02 0.02 0.02 0.03 0.03 0.04 0.04 0.04 0.04 0.04 0.05 0.06
0.01 0.01 0.01 0.01 0.01 0.01 0.01 0.00 0.00 0.00 0.00 0.00 0.00 0.00 0.00 0.00 0.01 0.01 0.01 0.01 0.01 0.01 0.01 0.01 0.01 0.01 0.01 0.01 0.01 0.01 0.01 0.02 0.02 0.02 0.02 0.03 0.03 0.03 0.04 0.04 0.04 0.04 0.04 0.05
0.01 0.01 0.01 0.01 0.00 0.01 0.01 0.01 0.00 0.00 0.00 0.00 0.00 0.00 0.00 0.01 0.01 0.01 0.01 0.01 0.01 0.01 0.01 0.01 0.01 0.01 0.01 0.01 0.01 0.01 0.01 0.01 0.01 0.02 0.02 0.03 0.03 0.03 0.03 0.04 0.04 0.04 0.04 0.04
0.01 0.01 0.00 0.00 0.00 0.00 0.00 0.00 0.00 0.00 0.00 0.00 0.00 0.00 0.00 0.00 0.01 0.01 0.01 0.01 0.01 0.01 0.01 0.01 0.01 0.01 0.01 0.01 0.01 0.01 0.01 0.01 0.01 0.02 0.02 0.02 0.02 0.03 0.03 0.04 0.04 0.04 0.04 0.04
0.00 0.00 0.00 0.00 0.00 0.00 0.00 0.00 0.00 0.00 0.00 0.00 0.00 0.00 0.01 0.00 0.00 0.00 0.00 0.01 0.01 0.01 0.01 0.01 0.01 0.01 0.02 0.02 0.01 0.01 0.01 0.01 0.01 0.01 0.02 0.02 0.02 0.02 0.02 0.03 0.03 0.04 0.04 0.04
0.00 0.00 0.00 0.00 0.00 0.00 0.00 0.00 0.00 0.00 0.00 0.00 0.00 0.00 0.00 0.00 0.00 0.00 0.00 0.01 0.01 0.01 0.01 0.01 0.01 0.01 0.02 0.01 0.01 0.01 0.01 0.01 0.01 0.01 0.01 0.02 0.02 0.02 0.02 0.03 0.03 0.03 0.03 0.04
0.00 0.00 0.00 0.00 0.00 0.00 0.00 0.00 0.00 0.00 0.00 0.00 0.00 0.00 0.00 0.00 0.00 0.00 0.00 0.01 0.01 0.01 0.01 0.01 0.01 0.01 0.01 0.01 0.00 0.00 0.00 0.00 0.01 0.01 0.01 0.01 0.01 0.02 0.02 0.02 0.02 0.03 0.03 0.03
0.00 0.00 0.00 0.00 0.00 0.00 0.00 0.00 0.00 0.00 0.00 0.00 0.00 0.00 0.00 0.01 0.01 0.00 0.00 0.01 0.01 0.01 0.01 0.01 0.01 0.01 0.01 0.00 0.00 0.00 0.00 0.00 0.01 0.01 0.01 0.01 0.01 0.01 0.01 0.02 0.02 0.02 0.02 0.02
0.00 0.00 0.00 0.00 0.00 0.00 0.00 0.00 0.00 0.00 0.00 0.00 0.00 0.00 0.00 0.00 0.00 0.00 0.00 0.01 0.01 0.01 0.00 0.00 0.01 0.01 0.00 0.00 0.00 0.00 0.00 0.00 0.00 0.00 0.00 0.01 0.01 0.01 0.01 0.01 0.01 0.02 0.02 0.02
0.00 0.00 0.00 0.00 0.00 0.00 0.00 0.00 0.00 0.00 0.00 0.00 0.00 0.00 0.00 0.00 0.00 0.00 0.00 0.01 0.00 0.00 0.00 0.00 0.00 0.00 0.00 0.00 0.00 0.00 0.00 0.00 0.00 0.00 0.00 0.00 0.01 0.01 0.01 0.01 0.01 0.01 0.01 0.01
MSLP
1032.84 1033.52 1033.97 1034.15 1034.06 1033.73 1033.21 1032.56 1031.87 1031.17 1030.53 1029.96 1029.46 1029.02 1028.61 1028.21 1027.79 1027.32 1026.79 1026.16 1025.42 1024.54 1023.49 1022.24 1020.80 1019.17 1017.40 1015.56 1013.76 1012.12 1010.78 1009.84 1009.39 1009.47 1010.06 1011.10 1012.46 1014.01 1015.60 1017.13 1018.51 1019.68 1020.67 1021.51
1032.83 1033.41 1033.80 1034.00 1034.01 1033.84 1033.55 1033.16 1032.73 1032.28 1031.83 1031.38 1030.93 1030.46 1029.96 1029.43 1028.85 1028.23 1027.57 1026.86 1026.07 1025.18 1024.16 1022.96 1021.57 1019.98 1018.22 1016.36 1014.50 1012.77 1011.31 1010.22 1009.62 1009.53 1009.98 1010.89 1012.15 1013.63 1015.19 1016.69 1018.06 1019.24 1020.23 1021.07
1032.80 1033.18 1033.44 1033.57 1033.60 1033.55 1033.45 1033.31 1033.15 1032.97 1032.76 1032.49 1032.15 1031.71 1031.18 1030.57 1029.87 1029.13 1028.34 1027.53 1026.67 1025.75 1024.73 1023.57 1022.23 1020.69 1018.97 1017.13 1015.26 1013.48 1011.93 1010.73 1009.99 1009.75 1010.03 1010.79 1011.92 1013.29 1014.76 1016.21 1017.56 1018.73 1019.73 1020.57
1032.70 1032.85 1032.93 1032.95 1032.96 1032.99 1033.04 1033.12 1033.22 1033.31 1033.35 1033.29 1033.09 1032.74 1032.23 1031.56 1030.79 1029.93 1029.03 1028.12 1027.19 1026.23 1025.20 1024.07 1022.77 1021.30 1019.65 1017.87 1016.03 1014.25 1012.65 1011.36 1010.49 1010.09 1010.20 1010.78 1011.74 1012.96 1014.31 1015.69 1016.99 1018.15 1019.15 1020.02
1032.48 1032.42 1032.32 1032.24 1032.23 1032.30 1032.48 1032.76 1033.09 1033.42 1033.69 1033.84 1033.80 1033.54 1033.06 1032.39 1031.55 1030.61 1029.61 1028.60 1027.60 1026.59 1025.56 1024.45 1023.22 1021.82 1020.26 1018.56 1016.79 1015.03 1013.43 1012.08 1011.09 1010.54 1010.46 1010.84 1011.59 1012.63 1013.84 1015.10 1016.34 1017.47 1018.49 1019.38
1032.10 1031.89 1031.68 1031.53 1031.50 1031.63 1031.92 1032.36 1032.88 1033.42 1033.89 1034.21 1034.31 1034.14 1033.71 1033.02 1032.15 1031.13 1030.06 1028.97 1027.90 1026.86 1025.81 1024.73 1023.56 1022.26 1020.80 1019.20 1017.52 1015.82 1014.22 1012.83 1011.74 1011.04 1010.78 1010.93 1011.47 1012.30 1013.33 1014.46 1015.61 1016.72 1017.74 1018.67
1031.59 1031.32 1031.07 1030.91 1030.90 1031.09 1031.49 1032.05 1032.72 1033.41 1034.03 1034.48 1034.68 1034.58 1034.18 1033.49 1032.59 1031.52 1030.38 1029.23 1028.11 1027.03 1025.99 1024.93 1023.82 1022.60 1021.25 1019.77 1018.18 1016.56 1014.99 1013.57 1012.40 1011.56 1011.11 1011.04 1011.35 1011.95 1012.79 1013.77 1014.82 1015.88 1016.90 1017.88
1031.05 1030.80 1030.57 1030.46 1030.51 1030.78 1031.25 1031.90 1032.67 1033.46 1034.16 1034.69 1034.95 1034.89 1034.51 1033.82 1032.89 1031.80 1030.61 1029.41 1028.25 1027.15 1026.10 1025.07 1024.01 1022.87 1021.63 1020.25 1018.76 1017.22 1015.68 1014.26 1013.02 1012.05 1011.42 1011.15 1011.22 1011.60 1012.23 1013.05 1013.99 1014.99 1016.00 1017.01
1030.60 1030.44 1030.30 1030.27 1030.39 1030.72 1031.26 1031.96 1032.77 1033.59 1034.32 1034.87 1035.14 1035.09 1034.71 1034.03 1033.09 1031.98 1030.77 1029.54 1028.35 1027.23 1026.18 1025.16 1024.15 1023.07 1021.91 1020.63 1019.23 1017.77 1016.28 1014.85 1013.56 1012.49 1011.70 1011.23 1011.08 1011.24 1011.67 1012.32 1013.14 1014.06 1015.05 1016.07
1030.42 1030.37 1030.34 1030.39 1030.58 1030.96 1031.51 1032.22 1033.00 1033.80 1034.50 1035.02 1035.27 1035.21 1034.83 1034.14 1033.21 1032.09 1030.88 1029.64 1028.44 1027.31 1026.24 1025.23 1024.24 1023.21 1022.11 1020.90 1019.59 1018.19 1016.75 1015.34 1014.02 1012.86 1011.94 1011.30 1010.95 1010.91 1011.14 1011.62 1012.30 1013.13 1014.07 1015.09
1030.61 1030.66 1030.72 1030.84 1031.07 1031.45 1031.98 1032.63 1033.35 1034.06 1034.69 1035.14 1035.34 1035.25 1034.86 1034.18 1033.26 1032.16 1030.96 1029.73 1028.52 1027.38 1026.31 1025.29 1024.30 1023.29 1022.23 1021.08 1019.83 1018.50 1017.11 1015.72 1014.38 1013.17 1012.15 1011.36 1010.85 1010.62 1010.66 1010.97 1011.50 1012.22 1013.09 1014.07
1031.21 1031.33 1031.44 1031.59 1031.81 1032.15 1032.60 1033.15 1033.75 1034.35 1034.86 1035.22 1035.36 1035.23 1034.83 1034.16 1033.26 1032.20 1031.02 1029.81 1028.61 1027.45 1026.36 1025.33 1024.33 1023.32 1022.28 1021.17 1019.98 1018.70 1017.36 1016.01 1014.68 1013.44 1012.35 1011.46 1010.81 1010.41 1010.28 1010.42 1010.79 1011.38 1012.15 1013.05
1032.15 1032.30 1032.41 1032.53 1032.70 1032.95 1033.29 1033.70 1034.16 1034.61 1035.00 1035.25 1035.32 1035.15 1034.74 1034.09 1033.23 1032.20 1031.07 1029.88 1028.68 1027.52 1026.42 1025.36 1024.34 1023.33 1022.29 1021.21 1020.06 1018.84 1017.57 1016.26 1014.97 1013.73 1012.60 1011.64 1010.88 1010.34 1010.06 1010.02 1010.23 1010.66 1011.29 1012.08
1033.29 1033.42 1033.49 1033.54 1033.62 1033.76 1033.96 1034.22 1034.52 1034.83 1035.09 1035.24 1035.23 1035.03 1034.62 1033.99 1033.17 1032.19 1031.09 1029.93 1028.75 1027.59 1026.46 1025.38 1024.34 1023.32 1022.29 1021.24 1020.14 1018.98 1017.77 1016.54 1015.29 1014.08 1012.95 1011.94 1011.10 1010.45 1010.02 1009.82 1009.86 1010.12 1010.58 1011.21
1034.45 1034.53 1034.53 1034.50 1034.47 1034.48 1034.54 1034.65 1034.81 1034.98 1035.11 1035.17 1035.10 1034.87 1034.45 1033.85 1033.07 1032.13 1031.08 1029.95 1028.79 1027.63 1026.50 1025.41 1024.35 1023.33 1022.32 1021.30 1020.25 1019.17 1018.04 1016.89 1015.72 1014.55 1013.44 1012.42 1011.52 1010.78 1010.22 1009.87 1009.74 1009.81 1010.09 1010.54
1035.46 1035.47 1035.40 1035.28 1035.15 1035.05 1034.98 1034.96 1034.99 1035.04 1035.07 1035.05 1034.92 1034.67 1034.25 1033.67 1032.93 1032.04 1031.03 1029.94 1028.80 1027.66 1026.54 1025.45 1024.40 1023.40 1022.41 1021.44 1020.46 1019.46 1018.43 1017.36 1016.28 1015.19 1014.11 1013.10 1012.17 1011.36 1010.70 1010.21 1009.91 1009.79 1009.88 1010.12
1036.21 1036.16 1036.03 1035.83 1035.62 1035.42 1035.26 1035.14 1035.06 1035.01 1034.96 1034.87 1034.71 1034.43 1034.02 1033.46 1032.75 1031.90 1030.93 1029.89 1028.79 1027.68 1026.59 1025.53 1024.51 1023.54 1022.61 1021.71 1020.80 1019.89 1018.96 1017.99 1017.00 1015.99 1014.97 1013.98 1013.04 1012.19 1011.44 1010.84 1010.39 1010.11 1010.00 1010.05
1036.64 1036.55 1036.37 1036.13 1035.86 1035.60 1035.36 1035.17 1035.03 1034.91 1034.79 1034.65 1034.45 1034.16 1033.75 1033.20 1032.52 1031.72 1030.80 1029.81 1028.77 1027.71 1026.67 1025.66 1024.70 1023.79 1022.93 1022.10 1021.29 1020.47 1019.64 1018.78 1017.88 1016.95 1015.99 1015.04 1014.11 1013.24 1012.44 1011.75 1011.19 1010.77 1010.49 1010.36
1036.78 1036.67 1036.47 1036.20 1035.90 1035.61 1035.33 1035.10 1034.90 1034.73 1034.57 1034.39 1034.16 1033.85 1033.44 1032.91 1032.26 1031.50 1030.64 1029.72 1028.75 1027.77 1026.80 1025.87 1024.99 1024.16 1023.38 1022.64 1021.92 1021.19 1020.45 1019.68 1018.87 1018.02 1017.13 1016.23 1015.33 1014.47 1013.65 1012.91 1012.27 1011.75 1011.35 1011.06
1036.72 1036.60 1036.39 1036.11 1035.80 1035.49 1035.20 1034.94 1034.71 1034.50 1034.31 1034.09 1033.84 1033.52 1033.11 1032.59 1031.98 1031.28 1030.49 1029.64 1028.75 1027.86 1026.99 1026.16 1025.37 1024.63 1023.94 1023.29 1022.65 1022.01 1021.35 1020.66 1019.92 1019.14 1018.33 1017.48 1016.63 1015.79 1014.98 1014.24 1013.57 1012.99 1012.51 1012.13
1036.55 1036.42 1036.20 1035.93 1035.62 1035.30 1035.00 1034.72 1034.48 1034.25 1034.03 1033.79 1033.52 1033.18 1032.78 1032.29 1031.72 1031.07 1030.35 1029.59 1028.81 1028.02 1027.25 1026.52 1025.83 1025.19 1024.58 1024.00 1023.44 1022.87 1022.27 1021.64 1020.97 1020.25 1019.50 1018.72 1017.92 1017.13 1016.37 1015.65 1014.99 1014.40 1013.90 1013.47
1036.32 1036.19 1035.97 1035.69 1035.39 1035.07 1034.77 1034.49 1034.23 1033.99 1033.75 1033.50 1033.21 1032.88 1032.49 1032.03 1031.50 1030.91 1030.27 1029.60 1028.92 1028.24 1027.58 1026.95 1026.35 1025.80 1025.26 1024.75 1024.24 1023.71 1023.16 1022.58 1021.96 1021.30 1020.60 1019.88 1019.15 1018.42 1017.73 1017.07 1016.46 1015.90 1015.41 1014.98
1036.08 1035.93 1035.71 1035.43 1035.13 1034.83 1034.53 1034.25 1034.00 1033.75 1033.50 1033.24 1032.95 1032.63 1032.25 1031.82 1031.34 1030.82 1030.26 1029.68 1029.09 1028.52 1027.95 1027.42 1026.90 1026.41 1025.94 1025.47 1025.00 1024.51 1023.99 1023.44 1022.86 1022.24 1021.59 1020.94 1020.28 1019.63 1019.01 1018.42 1017.88 1017.39 1016.94 1016.54
1035.81 1035.64 1035.40 1035.13 1034.84 1034.56 1034.28 1034.02 1033.77 1033.53 1033.28 1033.03 1032.75 1032.44 1032.08 1031.69 1031.26 1030.80 1030.31 1029.82 1029.32 1028.82 1028.35 1027.88 1027.44 1027.01 1026.58 1026.15 1025.70 1025.23 1024.74 1024.21 1023.65 1023.07 1022.48 1021.88 1021.29 1020.72 1020.18 1019.67 1019.21 1018.78 1018.39 1018.03
1035.45 1035.26 1035.03 1034.77 1034.51 1034.25 1034.00 1033.76 1033.54 1033.32 1033.09 1032.85 1032.59 1032.30 1031.97 1031.62 1031.23 1030.83 1030.40 1029.98 1029.55 1029.13 1028.72 1028.32 1027.93 1027.54 1027.14 1026.74 1026.31 1025.86 1025.38 1024.88 1024.35 1023.81 1023.26 1022.72 1022.19 1021.69 1021.22 1020.78 1020.38 1020.02 1019.68 1019.36
1034.96 1034.77 1034.55 1034.32 1034.10 1033.88 1033.68 1033.48 1033.30 1033.11 1032.91 1032.69 1032.45 1032.18 1031.89 1031.56 1031.22 1030.86 1030.48 1030.11 1029.74 1029.38 1029.02 1028.67 1028.32 1027.97 1027.61 1027.23 1026.82 1026.39 1025.94 1025.46 1024.96 1024.46 1023.95 1023.45 1022.98 1022.53 1022.11 1021.72 1021.37 1021.04 1020.73 1020.44
1034.33 1034.15 1033.96 1033.78 1033.60 1033.44 1033.29 1033.15 1033.01 1032.86 1032.69 1032.50 1032.29 1032.04 1031.77 1031.47 1031.15 1030.83 1030.50 1030.16 1029.84 1029.52 1029.21 1028.90 1028.59 1028.27 1027.94 1027.59 1027.21 1026.81 1026.39 1025.94 1025.48 1025.01 1024.55 1024.09 1023.65 1023.23 1022.84 1022.47 1022.13 1021.81 1021.51 1021.21
Thickness
5419 5421 5417 5417 5419 5411 5408 5410 5412 5425 5421 5436 5428 5419 5416 5416 5414 5413 5412 5411 5410 5410 5409 5408 5408 5408 5408 5408 5409 5409 5409 5411 5412 5412 5412 5412 5413 5413 5413 5414 5415 5415 5415 5416
5404 5410 5406 5408 5413 5409 5407 5405 5403 5408 5416 5424 5410 5402 5399 5398 5399 5399 5399 5399 5399 5398 5397 5397 5397 5397 5397 5397 5397 5396 5397 5399 5400 5400 5400 5400 5401 5401 5401 5402 5402 5402 5403 5404
5393 5392 5394 5400 5409 5407 5402 5398 5397 5403 5414 5405 5396 5392 5388 5385 5383 5383 5384 5384 5384 5383 5383 5383 5383 5384 5385 5385 5385 5385 5386 5386 5387 5387 5387 5388 5388 5388 5388 5389 5389 5390 5390 5391
5372 5377 5386 5413 5395 5396 5396 5391 5385 5390 5392 5386 5381 5375 5371 5369 5367 5367 5368 5368 5369 5369 5370 5370 5370 5371 5371 5372 5373 5373 5373 5373 5374 5374 5375 5375 5374 5374 5375 5375 5376 5377 5377 5378
5362 5364 5377 5390 5384 5374 5374 5380 5377 5375 5376 5370 5362 5362 5364 5359 5354 5352 5351 5352 5353 5354 5355 5357 5357 5358 5359 5359 5359 5360 5360 5360 5360 5361 5361 5361 5361 5361 5361 5362 5363 5364 5365 5365
5352 5357 5367 5387 5371 5363 5364 5370 5372 5364 5363 5358 5353 5359 5359 5348 5342 5340 5338 5338 5339 5340 5342 5343 5343 5344 5345 5345 5345 5345 5346 5346 5346 5346 5347 5347 5348 5348 5348 5348 5350 5351 5351 5352
5347 5347 5358 5366 5353 5355 5361 5370 5361 5353 5350 5344 5341 5343 5338 5332 5329 5326 5325 5324 5325 5326 5327 5328 5328 5329 5330 5329 5329 5330 5331 5332 5332 5333 5333 5333 5334 5334 5334 5335 5335 5336 5338 5339
5336 5338 5355 5352 5343 5349 5355 5348 5343 5339 5335 5330 5325 5322 5320 5318 5315 5313 5311 5311 5311 5312 5312 5313 5313 5314 5314 5314 5315 5315 5316 5317 5318 5318 5319 5320 5320 5320 5320 5321 5321 5322 5323 5324
5342 5354 5351 5340 5339 5335 5330 5330 5327 5324 5321 5316 5311 5309 5307 5304 5301 5299 5297 5296 5296 5296 5297 5297 5297 5298 5298 5299 5300 5301 5303 5303 5303 5304 5305 5306 5306 5307 5307 5307 5308 5310 5311 5312
5327 5337 5334 5328 5323 5320 5317 5315 5312 5309 5305 5302 5298 5296 5293 5290 5287 5284 5283 5281 5281 5281 5282 5282 5281 5282 5283 5284 5286 5288 5288 5289 5289 5290 5290 5291 5293 5294 5294 5295 5296 5298 5299 5301
5319 5323 5319 5320 5312 5308 5304 5300 5296 5294 5291 5288 5285 5282 5278 5274 5271 5268 5268 5266 5266 5266 5266 5266 5266 5267 5269 5270 5271 5272 5273 5274 5275 5275 5276 5277 5278 5279 5281 5282 5284 5286 5288 5289
5327 5321 5313 5312 5300 5295 5291 5287 5284 5279 5276 5273 5269 5266 5262 5258 5255 5253 5252 5252 5251 5251 5251 5251 5251 5252 5253 5254 5255 5256 5259 5259 5260 5260 5261 5262 5264 5265 5267 5269 5272 5274 5276 5277
5306 5299 5294 5290 5284 5280 5277 5273 5269 5265 5261 5257 5253 5250 5247 5243 5241 5238 5237 5237 5236 5236 5236 5236 5237 5238 5239 5239 5240 5241 5243 5244 5245 5246 5246 5247 5249 5250 5252 5255 5257 5260 5262 5264
5283 5282 5280 5275 5271 5265 5261 5257 5253 5248 5244 5241 5238 5235 5231 5229 5227 5225 5223 5223 5222 5221 5221 5222 5223 5224 5225 5226 5227 5227 5228 5230 5231 5231 5232 5233 5234 5235 5237 5239 5242 5244 5247 5250
5269 5267 5265 5260 5254 5250 5246 5242 5239 5235 5231 5227 5223 5220 5217 5214 5212 5211 5209 5209 5209 5208 5208 5208 5209 5211 5212 5213 5214 5214 5215 5216 5217 5218 5218 5219 5220 5221 5222 5224 5226 5228 5231 5234
5256 5252 5249 5245 5242 5237 5233 5230 5226 5223 5218 5214 5210 5206 5203 5200 5198 5197 5196 5195 5194 5194 5194 5195 5196 5197 5198 5199 5200 5201 5201 5204 5205 5205 5205 5205 5206 5207 5209 5210 5211 5214 5216 5218
5245 5243 5238 5235 5231 5226 5222 5218 5214 5210 5204 5200 5197 5193 5190 5187 5186 5184 5183 5182 5181 5181 5181 5182 5184 5185 5186 5187 5187 5188 5188 5189 5191 5191 5191 5192 5193 5194 5195 5196 5198 5200 5203 5205
5234 5232 5228 5224 5220 5215 5210 5206 5201 5197 5192 5188 5184 5180 5177 5175 5173 5172 5171 5170 5170 5170 5170 5171 5173 5174 5175 5175 5175 5175 5175 5175 5176 5176 5177 5178 5180 5181 5182 5183 5185 5187 5190 5192
5222 5219 5215 5211 5207 5203 5198 5194 5189 5184 5179 5175 5172 5168 5165 5163 5161 5160 5158 5158 5158 5158 5159 5160 5162 5162 5163 5163 5164 5163 5162 5162 5163 5164 5164 5166 5167 5168 5168 5170 5171 5174 5176 5179
5212 5208 5204 5200 5196 5191 5186 5182 5176 5172 5168 5164 5161 5158 5155 5152 5151 5149 5148 5147 5146 5147 5148 5150 5150 5151 5151 5151 5152 5151 5150 5150 5150 5151 5152 5152 5153 5154 5155 5156 5158 5160 5163 5165
5201 5198 5194 5189 5184 5180 5175 5170 5166 5161 5158 5154 5151 5148 5145 5143 5141 5139 5138 5139 5140 5140 5140 5141 5141 5141 5141 5141 5141 5139 5139 5138 5138 5138 5139 5139 5140 5141 5142 5143 5145 5147 5150 5152
5191 5187 5183 5178 5173 5169 5164 5160 5156 5151 5148 5144 5141 5138 5136 5134 5132 5131 5129 5129 5130 5132 5132 5131 5131 5132 5133 5132 5130 5128 5128 5127 5127 5127 5127 5127 5128 5129 5130 5131 5133 5135 5137 5139
5181 5177 5172 5167 5163 5158 5154 5150 5146 5142 5139 5136 5133 5131 5128 5126 5123 5122 5122 5121 5121 5123 5122 5122 5123 5124 5124 5121 5119 5118 5117 5116 5116 5116 5116 5117 5117 5118 5119 5120 5122 5123 5125 5127
5170 5166 5162 5157 5152 5148 5145 5142 5138 5135 5131 5128 5126 5123 5120 5118 5116 5114 5113 5114 5114 5115 5114 5114 5115 5115 5114 5111 5109 5108 5107 5107 5107 5107 5107 5107 5107 5108 5108 5109 5111 5113 5114 5116
5160 5156 5151 5147 5144 5141 5137 5133 5129 5126 5124 5122 5119 5117 5114 5111 5109 5108 5107 5106 5106 5106 5105 5105 5106 5105 5103 5101 5100 5099 5099 5098 5099 5099 5099 5099 5099 5099 5099 5100 5101 5102 5104 5106
5151 5147 5144 5140 5136 5132 5129 5125 5122 5119 5117 5115 5113 5110 5108 5106 5104 5102 5100 5099 5098 5099 5097 5096 5095 5095 5094 5093 5092 5091 5091 5091 5090 5090 5090 5090 5091 5091 5091 5092 5093 5094 5095 5097
5141 5138 5135 5132 5129 5125 5122 5118 5115 5113 5111 5108 5106 5105 5102 5100 5098 5096 5095 5093 5092 5091 5090 5089 5088 5087 5087 5086 5085 5085 5085 5084 5084 5084 5083 5083 5084 5084 5085 5085 5086 5087 5088 5090